Погода в Каменной

Украина / Черновицкая область     48°13′24″N   25°51′20″E
темп.,
°C
ветер,
м/с
пор.,
м/с
влажн.,
%
обл.,
%
осадки,
мм/ч
давл.,
гПа
погр.,
м
12 августа, пт
пт1200:00+14з22800 0.0 102022
03:00+12зсз22897 0.0 102119
06:00+13зсз248698 0.0 102091
09:00+18зсз46675 0.0 1020395
12:00+19сз477695 0.3 1019455
15:00+23ссз456496 0.5 10181148
18:00+20ссв268587 3.6 1018307
21:00+17сз229595 3.8 101835
13 августа, сб
сб1300:00+17зсз229585 0.0 101728
03:00+15зсз229641 0.0 101729
06:00+14зсз239796 0.0 101648
09:00+16зсз3695100 0.0 1015267
12:00+19сз4685100 0.0 1014537
15:00+24ссз456448 0.0 10121081
18:00+24ссз3469100 1.6 1011965
21:00+19зсз3388100 5.3 101150
14 августа, вс
вс1400:00+17зсз3596100 2.8 1011121
03:00+17зсз4997100 3.7 1010254
06:00+17зсз3899100 0.1 1010337
09:00+18сз6893100 0.1 1010492
12:00+20сз5684100 0.1 1010646
15:00+24сз4465100 0.1 10091098
18:00+25с3460100 0.0 10081128
21:00+20ю1182100 1.8 100814
15 августа, пн
пн1500:00+18юз0191100 3.9 100811
03:00+17зюз119199 3.9 100811
06:00+16з1191100 0.0 100711
09:00+19зсз1282100 0.0 1007177
12:00+24зсз2261100 0.0 1007627
15:00+27с1150100 0.0 10061253
18:00+27ююз115041 0.1 10071198
21:00+18юз227250 0.7 100725
16 августа, вт
вт1600:00+18юз117883 0.0 100811
03:00+17зсз22845 0.0 100712
06:00+16юз11875 0.0 100711
09:00+22зюз116515 0.0 1008183
12:00+26з224858 0.0 1008643
15:00+30св243715 0.0 10071932
18:00+26юв355420 0.1 1007156
21:00+19ю22865 2.0 101027